DW1458 Weather Reports


time (UTC)temp
C
wind
direction
speed
KPH
gust
KPH
rain 1hr
cm
rain 24hr
cm
rain mn
cm
humidity
%
barometer
mb
20260504011518 18 326 0.0 1.6 0.00 2.64 2.16 63 1018.8
20260504010021 18 326 0.0 3.2 0.00 2.64 2.16 60 1018.5
20260504004528 19 326 0.0 0.0 0.00 2.67 2.16 56 1018.4
20260504003012 20 326 0.0 0.0 0.00 2.67 2.16 48 1018.3
20260504001519 21 326 0.0 0.0 0.00 2.67 2.16 44 1018.0
20260504000022 22 326 0.0 3.2 0.00 2.67 2.16 40 1018.1
20260503234526 22 1 1.6 6.4 0.00 2.67 2.16 37 1018.1
20260503233025 23 358 3.2 8.0 0.00 2.67 2.16 36 1018.1
20260503231520 23 359 3.2 9.7 0.00 2.72 2.16 36 1018.1
20260503230022 24 326 4.8 12.9 0.00 2.72 2.16 34 1018.2
20260503224523 24 359 3.2 11.3 0.00 2.72 2.16 33 1018.1
20260503223028 25 308 1.6 9.7 0.00 2.72 2.16 32 1017.9
20260503221527 25 7 3.2 6.4 0.00 2.72 2.16 33 1017.9
20260503220019 25 31 3.2 6.4 0.00 2.72 2.16 36 1018.0
20260503214520 25 1 6.4 11.3 0.00 2.74 2.16 33 1018.0
20260503213029 25 359 4.8 9.7 0.00 2.74 2.16 34 1018.3
20260503211534 25 32 3.2 12.9 0.00 2.74 2.16 35 1018.3
20260503210016 24 134 1.6 12.9 0.00 2.74 2.16 35 1018.7
20260503204522 25 13 4.8 9.7 0.00 2.74 2.16 32 1018.8
20260503203024 24 234 1.6 11.3 0.00 2.77 2.16 37 1019.1
20260503201510 24 359 6.4 14.5 0.00 2.77 2.16 35 1019.1
20260503200015 24 21 3.2 9.7 0.00 2.77 2.16 32 1019.2
20260503194519 24 252 3.2 6.4 0.00 2.77 2.16 33 1019.7
20260503193005 24 313 3.2 9.7 0.00 2.77 2.16 36 1020.0
20260503191509 23 310 4.8 8.0 0.00 2.79 2.16 38 1020.3
20260503190029 23 342 6.4 16.1 0.00 2.79 2.16 36 1020.3
20260503184518 24 359 4.8 11.3 0.00 2.79 2.16 35 1020.9
20260503183023 23 341 1.6 12.9 0.00 2.79 2.16 33 1020.8
20260503181504 23 158 1.6 17.7 0.00 2.82 2.16 35 1020.9
20260503180018 23 344 1.6 14.5 0.00 2.82 2.16 35 1021.2
20260503174513 23 341 1.6 11.3 0.00 2.82 2.16 34 1021.1
20260503173020 23 206 4.8 14.5 0.00 2.82 2.16 39 1021.2
20260503171534 22 158 4.8 14.5 0.00 2.84 2.16 40 1021.4
20260503081504 8 323 0.0 0.0 0.30 1.75 0.84 87 1019.9
20260503054507 10 323 0.0 0.0 0.25 1.14 0.18 87 1019.5
20260503053010 10 323 0.0 0.0 0.25 1.12 0.13 87 1019.4
20260503051506 10 323 0.0 0.0 0.25 1.04 0.05 88 1019.2
20260503050006 10 323 0.0 0.0 0.25 0.99 0.00 88 1019.1
20260503044509 10 323 0.0 0.0 0.23 0.94 0.91 88 1019.0
20260503043011 10 323 0.0 0.0 0.23 0.89 0.86 88 1018.9
20260503041514 10 323 0.0 0.0 0.20 0.81 0.79 86 1018.9
20260503040012 11 323 0.0 0.0 0.18 0.79 0.74 84 1018.8
20260503031514 12 323 0.0 0.0 0.08 0.66 0.58 77 1018.6
20260503030013 12 323 0.0 0.0 0.05 0.64 0.56 74 1018.4
20260503024514 13 323 0.0 0.0 0.05 0.61 0.53 72 1018.3
20260503023008 13 323 0.0 0.0 0.03 0.61 0.51 70 1018.0
20260503020014 15 323 0.0 0.0 0.03 0.64 0.51 62 1017.6
20260503014522 16 8 0.0 1.6 0.03 0.61 0.48 61 1017.4
20260503013014 16 324 0.0 0.0 0.03 0.61 0.48 58 1017.3